Wayne, NE

3:17 AM CST on November 20, 2017 (GMT -0600)
Wayne Municipal

Weather History for KLCG - April, 2013

Change the Weather History Date:

Sunday, April 28, 2013

  Actual Average (KOFK) Record (KOFK)
Temperature  
Mean Temperature 66 °F -  
Max Temperature 86 °F 67 °F 102 °F (1910)
Min Temperature 46 °F 41 °F 24 °F (1926)
Growing Degree Days 16 (Base 50)    
Moisture  
Dew Point 43 °F    
Average Humidity 51    
Maximum Humidity 92    
Minimum Humidity 16    
Precipitation  
Precipitation 0.00 in - - ()
Sea Level Pressure  
Sea Level Pressure 29.78 in    
Wind  
Wind Speed 10 mph (South)    
Max Wind Speed 23 mph    
Max Gust Speed 29 mph    
Visibility 10 miles    
Events      
Averages and records for this station are not official NWS values.
T = Trace of Precipitation, MM = Missing Value Source: NWS Daily Summary

Daily Weather History Graph

Daily Weather History Graph

Search for Another Location

Airport or City:

Trip Planner

Search our weather history database for the weather conditions in past years. The results will help you decide how hot, cold, wet, or windy it might be!

Date:

Astronomy

Apr. 28, 2013 Rise Set
Actual Time 6:27 AM CDT 8:24 PM CDT
Civil Twilight 5:56 AM CDT 8:54 PM CDT
Nautical Twilight 5:19 AM CDT 9:31 PM CDT
Astronomical Twilight 4:39 AM CDT 10:12 PM CDT
Moon 11:57 PM CDT (4/28) 8:42 AM CDT (4/28)
Length of Visible Light 14h 57m
Length of Day
13h 57m
Waning Gibbous, 88% of the Moon is Illuminated
Apr 28
Waning Gibbous
May 2
Last Quarter
May 9
New
May 17
First Quarter
May 24
Full

Hourly Weather History & Observations

Time (CDT) Temp. Dew Point Humidity Pressure Visibility Wind Dir Wind Speed Gust Speed Precip Events Conditions
12:15 AM 54.5 °F 46.0 °F 73% 29.91 in 7.0 mi South 10.4 mph - N/A   Clear
12:35 AM 53.6 °F 46.4 °F 77% 29.92 in 7.0 mi SSE 6.9 mph - N/A   Clear
12:55 AM 53.1 °F 46.8 °F 79% 29.91 in 7.0 mi SSE 9.2 mph - N/A   Clear
1:15 AM 52.7 °F 46.6 °F 80% 29.92 in 7.0 mi South 5.8 mph - N/A   Clear
1:35 AM 51.4 °F 46.2 °F 82% 29.91 in 7.0 mi South 5.8 mph - N/A   Clear
1:55 AM 51.3 °F 46.4 °F 83% 29.91 in 7.0 mi South 8.1 mph - N/A   Clear
2:15 AM 50.4 °F 45.9 °F 85% 29.89 in 7.0 mi South 5.8 mph - N/A   Clear
2:35 AM 50.0 °F 45.9 °F 86% 29.89 in 7.0 mi South 6.9 mph - N/A   Clear
2:55 AM 49.8 °F 45.9 °F 86% 29.88 in 10.0 mi South 5.8 mph - N/A   Clear
3:15 AM 49.1 °F 45.5 °F 87% 29.88 in 10.0 mi South 4.6 mph - N/A   Clear
3:35 AM 48.7 °F 45.5 °F 89% 29.87 in 10.0 mi SSW 3.5 mph - N/A   Clear
3:55 AM 49.1 °F 45.7 °F 88% 29.86 in 10.0 mi SSW 5.8 mph - N/A   Clear
4:15 AM 49.3 °F 45.9 °F 88% 29.86 in 10.0 mi South 4.6 mph - N/A   Clear
4:35 AM 49.1 °F 45.7 °F 88% 29.86 in 10.0 mi South 5.8 mph - N/A   Clear
4:55 AM 47.8 °F 45.1 °F 90% 29.86 in 10.0 mi South 4.6 mph - N/A   Clear
5:15 AM 46.8 °F 44.4 °F 92% 29.86 in 10.0 mi South 4.6 mph - N/A   Clear
5:35 AM 46.9 °F 44.8 °F 92% 29.85 in 10.0 mi South 4.6 mph - N/A   Clear
6:15 AM 49.1 °F 45.9 °F 89% 29.84 in 10.0 mi South 5.8 mph - N/A   Clear
6:35 AM 48.2 °F 45.5 °F 90% 29.84 in 10.0 mi Calm Calm - N/A   Clear
6:55 AM 48.2 °F 45.7 °F 91% 29.83 in 10.0 mi Calm Calm - N/A   Clear
7:15 AM 48.4 °F 46.0 °F 92% 29.82 in 7.0 mi SSW 3.5 mph - N/A   Clear
7:35 AM 50.4 °F 47.7 °F 90% 29.81 in 10.0 mi South 10.4 mph - N/A   Clear
8:15 AM 54.5 °F 49.3 °F 83% 29.83 in 10.0 mi SSW 8.1 mph - N/A   Clear
8:35 AM 56.7 °F 50.0 °F 78% 29.82 in 10.0 mi South 10.4 mph - N/A   Clear
8:55 AM 60.1 °F 50.0 °F 69% 29.81 in 10.0 mi SSW 16.1 mph 19.6 mph N/A   Clear
9:15 AM 61.2 °F 49.3 °F 65% 29.81 in 10.0 mi SSW 18.4 mph - N/A   Clear
9:35 AM 62.1 °F 49.1 °F 62% 29.81 in 10.0 mi SSW 17.3 mph - N/A   Clear
9:55 AM 63.5 °F 48.9 °F 59% 29.80 in 10.0 mi SSW 16.1 mph - N/A   Clear
10:15 AM 65.1 °F 48.6 °F 55% 29.79 in 10.0 mi SSW 17.3 mph - N/A   Clear
10:35 AM 65.5 °F 48.4 °F 54% 29.79 in 10.0 mi SSW 16.1 mph - N/A   Clear
10:55 AM 66.6 °F 47.8 °F 51% 29.78 in 10.0 mi SSW 16.1 mph 21.9 mph N/A   Clear
11:15 AM 70.0 °F 47.3 °F 44% 29.78 in 10.0 mi SW 16.1 mph - N/A   Clear
11:35 AM 71.6 °F 46.8 °F 41% 29.78 in 10.0 mi SSW 16.1 mph - N/A   Clear
11:55 AM 73.8 °F 45.5 °F 36% 29.77 in 10.0 mi South 16.1 mph - N/A   Clear
12:15 PM 75.2 °F 44.8 °F 34% 29.76 in 10.0 mi South 15.0 mph 21.9 mph N/A   Clear
12:35 PM 77.5 °F 43.7 °F 30% 29.76 in 10.0 mi SSW 15.0 mph - N/A   Clear
12:55 PM 77.4 °F 43.9 °F 30% 29.75 in 10.0 mi SSW 16.1 mph 21.9 mph N/A   Clear
1:15 PM 79.0 °F 42.6 °F 27% 29.74 in 10.0 mi South 17.3 mph 20.7 mph N/A   Clear
1:35 PM 77.9 °F 42.8 °F 29% 29.74 in 10.0 mi South 11.5 mph - N/A   Clear
1:55 PM 79.2 °F 42.1 °F 27% 29.73 in 10.0 mi South 13.8 mph 18.4 mph N/A   Clear
2:15 PM 82.2 °F 40.3 °F 23% 29.72 in 10.0 mi South 15.0 mph 23.0 mph N/A   Clear
2:35 PM 83.5 °F 39.4 °F 21% 29.72 in 10.0 mi South 13.8 mph 20.7 mph N/A   Clear
2:55 PM 84.4 °F 38.1 °F 19% 29.71 in 10.0 mi SSW 12.7 mph 20.7 mph N/A   Clear
3:15 PM 85.6 °F 37.0 °F 18% 29.70 in 10.0 mi SSW 15.0 mph - N/A   Clear
3:35 PM 85.8 °F 36.1 °F 17% 29.70 in 10.0 mi SSW 16.1 mph 20.7 mph N/A   Clear
3:55 PM 84.9 °F 36.7 °F 18% 29.69 in 10.0 mi South 11.5 mph 17.3 mph N/A   Clear
4:15 PM 85.1 °F 36.3 °F 18% 29.68 in 10.0 mi South 12.7 mph 19.6 mph N/A   Clear
4:35 PM 84.4 °F 37.8 °F 19% 29.68 in 10.0 mi South 12.7 mph - N/A   Clear
4:55 PM 84.7 °F 36.9 °F 18% 29.68 in 10.0 mi South 13.8 mph 18.4 mph N/A   Clear
5:15 PM 84.2 °F 36.7 °F 18% 29.67 in 10.0 mi South 15.0 mph - N/A   Clear
5:35 PM 85.1 °F 35.4 °F 17% 29.67 in 10.0 mi South 12.7 mph 18.4 mph N/A   Clear
5:55 PM 84.9 °F 34.3 °F 16% 29.67 in 10.0 mi South 12.7 mph - N/A   Clear
6:15 PM 83.3 °F 34.5 °F 17% 29.66 in 10.0 mi South 12.7 mph - N/A   Clear
6:35 PM 82.9 °F 35.8 °F 18% 29.66 in 10.0 mi South 13.8 mph - N/A   Clear
6:55 PM 81.9 °F 35.8 °F 19% 29.65 in 10.0 mi South 12.7 mph - N/A   Clear
7:15 PM 80.8 °F 38.5 °F 22% 29.65 in 10.0 mi SSE 10.4 mph - N/A   Clear
7:35 PM 78.4 °F 40.8 °F 26% 29.66 in 10.0 mi West 9.2 mph - N/A   Clear
7:55 PM 77.4 °F 39.6 °F 26% 29.68 in 10.0 mi North 20.7 mph 28.8 mph N/A   Clear
8:15 PM 73.6 °F 38.3 °F 28% 29.70 in 10.0 mi North 21.9 mph 26.5 mph N/A   Clear
8:35 PM 71.8 °F 37.4 °F 29% 29.71 in 10.0 mi North 20.7 mph 28.8 mph N/A   Clear
8:55 PM 70.0 °F 36.7 °F 30% 29.73 in 10.0 mi North 23.0 mph 28.8 mph N/A   Clear
9:15 PM 68.7 °F 35.6 °F 30% 29.75 in 10.0 mi North 17.3 mph 23.0 mph N/A   Clear
9:35 PM 67.3 °F 36.5 °F 32% 29.76 in 10.0 mi North 12.7 mph - N/A   Clear
9:55 PM 66.2 °F 37.6 °F 35% 29.77 in 10.0 mi NNE 16.1 mph 19.6 mph N/A   Clear
10:15 PM 65.3 °F 38.3 °F 37% 29.77 in 10.0 mi NNE 11.5 mph - N/A   Clear
10:35 PM 63.5 °F 39.0 °F 41% 29.78 in 10.0 mi NNE 10.4 mph - N/A   Clear
10:55 PM 62.6 °F 39.6 °F 43% 29.78 in 10.0 mi North 9.2 mph - N/A   Clear
11:15 PM 61.5 °F 40.1 °F 45% 29.78 in 10.0 mi North 6.9 mph - N/A   Clear
11:35 PM 59.9 °F 40.1 °F 48% 29.79 in 10.0 mi NNW 6.9 mph - N/A   Clear
11:55 PM 57.9 °F 40.3 °F 52% 29.79 in 10.0 mi NNW 6.9 mph - N/A   Clear